When you browse on this site, cookies collect data to enhance your experience and personalize the content and advertising you see.
Visit our Privacy Policy to learn more. By continuing to use the site, you agree to this use of cookies and data.
  • en France
  • Liste des pays
  • À 7 jours
  • Température de l'eau
  • Carte météo
  • Widgets météo
  • user-avatar
    Se connecter

    Météo par heure à Limoges

    Ce jour, 19 Août, Lundi

    Heure Température Précipitation Vent Pression Humidité
    00:00 +13°C° 0 mm 1 m/s 734 mmHg 97%
    01:00 +12°C° 0 mm 0 m/s 734 mmHg 97%
    02:00 +11°C° 0 mm 0 m/s 734 mmHg 97%
    03:00 +10°C° 0 mm 0 m/s 734 mmHg 97%
    04:00 +10°C° 0 mm 0 m/s 734 mmHg 97%
    05:00 +10°C° 0 mm 0 m/s 734 mmHg 97%
    06:00 +10°C° 0 mm 0 m/s 735 mmHg 96%
    07:00 +13°C° 0 mm 0 m/s 735 mmHg 84%
    08:00 +16°C° 0 mm 1 m/s 735 mmHg 72%
    09:00 +19°C° 0 mm 1 m/s 735 mmHg 59%
    10:00 +21°C° 0 mm 1 m/s 736 mmHg 52%
    11:00 +22°C° 0 mm 1 m/s 736 mmHg 45%
    12:00 +24°C° 0 mm 1 m/s 736 mmHg 37%
    13:00 +24°C° 0 mm 2 m/s 736 mmHg 37%
    14:00 +24°C° 0 mm 2 m/s 736 mmHg 37%
    15:00 +25°C° 0 mm 2 m/s 735 mmHg 36%
    16:00 +23°C° 0 mm 2 m/s 735 mmHg 42%
    17:00 +22°C° 0 mm 1 m/s 735 mmHg 48%
    18:00 +21°C° 0 mm 1 m/s 735 mmHg 54%
    19:00 +19°C° 0 mm 1 m/s 735 mmHg 61%
    20:00 +16°C° 0 mm 1 m/s 736 mmHg 68%
    21:00 +14°C° 0 mm 1 m/s 736 mmHg 75%
    22:00 +14°C° 0 mm 1 m/s 736 mmHg 75%
    23:00 +14°C° 0 mm 1 m/s 736 mmHg 75%

    Demain, 20 Août, Mardi

    Heure Température Précipitation Vent Pression Humidité
    00:00 +14°C° 0 mm 1 m/s 736 mmHg 75%
    01:00 +14°C° 0 mm 1 m/s 736 mmHg 76%
    02:00 +13°C° 0 mm 1 m/s 736 mmHg 77%
    03:00 +13°C° 0 mm 1 m/s 736 mmHg 77%
    04:00 +13°C° 0 mm 1 m/s 736 mmHg 77%
    05:00 +13°C° 0 mm 1 m/s 736 mmHg 77%
    06:00 +13°C° 0 mm 1 m/s 736 mmHg 77%
    07:00 +15°C° 0 mm 1 m/s 737 mmHg 70%
    08:00 +19°C° 0 mm 1 m/s 737 mmHg 62%
    09:00 +21°C° 0 mm 1 m/s 738 mmHg 54%
    10:00 +22°C° 0 mm 1 m/s 738 mmHg 50%
    11:00 +23°C° 0 mm 1 m/s 739 mmHg 46%
    12:00 +24°C° 0 mm 1 m/s 739 mmHg 42%
    13:00 +24°C° 0 mm 1 m/s 739 mmHg 42%
    14:00 +24°C° 0 mm 1 m/s 739 mmHg 43%
    15:00 +24°C° 0 mm 2 m/s 738 mmHg 43%
    16:00 +23°C° 0 mm 1 m/s 738 mmHg 48%
    17:00 +22°C° 0 mm 1 m/s 738 mmHg 52%
    18:00 +21°C° 0 mm 1 m/s 738 mmHg 57%
    19:00 +19°C° 0 mm 1 m/s 739 mmHg 63%
    20:00 +16°C° 0 mm 1 m/s 739 mmHg 70%
    21:00 +14°C° 0 mm 1 m/s 739 mmHg 77%
    22:00 +13°C° 0 mm 1 m/s 739 mmHg 79%
    23:00 +13°C° 0 mm 1 m/s 739 mmHg 81%

    Après-demain, 21 Août, Mercredi

    Heure Température Précipitation Vent Pression Humidité
    00:00 +12°C° 0 mm 1 m/s 739 mmHg 83%
    01:00 +12°C° 0 mm 1 m/s 739 mmHg 85%
    02:00 +12°C° 0 mm 1 m/s 739 mmHg 86%
    03:00 +11°C° 0 mm 1 m/s 738 mmHg 87%
    04:00 +12°C° 0 mm 1 m/s 738 mmHg 86%
    05:00 +12°C° 0 mm 1 m/s 738 mmHg 85%
    06:00 +12°C° 0 mm 1 m/s 738 mmHg 84%
    07:00 +15°C° 0 mm 2 m/s 738 mmHg 73%
    08:00 +17°C° 0 mm 2 m/s 738 mmHg 63%
    09:00 +20°C° 0 mm 3 m/s 738 mmHg 53%
    10:00 +21°C° 0 mm 3 m/s 738 mmHg 49%
    11:00 +22°C° 0 mm 3 m/s 738 mmHg 45%
    12:00 +25°C° 0 mm 3 m/s 738 mmHg 41%
    13:00 +25°C° 0 mm 3 m/s 737 mmHg 40%
    14:00 +25°C° 0 mm 3 m/s 737 mmHg 39%
    15:00 +26°C° 0 mm 3 m/s 737 mmHg 37%
    16:00 +25°C° 0 mm 2 m/s 737 mmHg 43%
    17:00 +23°C° 0 mm 2 m/s 736 mmHg 49%
    18:00 +22°C° 0 mm 1 m/s 736 mmHg 55%
    19:00 +20°C° 0 mm 1 m/s 737 mmHg 61%
    20:00 +18°C° 0 mm 1 m/s 737 mmHg 66%
    21:00 +15°C° 0 mm 1 m/s 737 mmHg 72%
    22:00 +14°C° 0 mm 1 m/s 737 mmHg 75%
    23:00 +14°C° 0 mm 1 m/s 737 mmHg 79%

    22 Août, Jeudi

    Heure Température Précipitation Vent Pression Humidité
    00:00 +13°C° 0 mm 1 m/s 737 mmHg 82%
    01:00 +13°C° 0 mm 1 m/s 737 mmHg 83%
    02:00 +12°C° 0 mm 1 m/s 737 mmHg 85%
    03:00 +12°C° 0 mm 1 m/s 736 mmHg 86%
    04:00 +13°C° 0 mm 1 m/s 737 mmHg 86%
    05:00 +13°C° 0 mm 1 m/s 737 mmHg 85%
    06:00 +13°C° 0 mm 1 m/s 738 mmHg 84%
    07:00 +16°C° 0 mm 1 m/s 738 mmHg 72%
    08:00 +19°C° 0 mm 2 m/s 738 mmHg 61%
    09:00 +23°C° 0 mm 2 m/s 738 mmHg 49%
    10:00 +24°C° 0 mm 2 m/s 738 mmHg 44%
    11:00 +26°C° 0 mm 2 m/s 738 mmHg 40%
    12:00 +27°C° 0 mm 2 m/s 738 mmHg 35%
    13:00 +28°C° 0 mm 2 m/s 737 mmHg 34%
    14:00 +28°C° 0 mm 2 m/s 737 mmHg 33%
    15:00 +29°C° 0 mm 2 m/s 737 mmHg 32%
    16:00 +27°C° 0 mm 2 m/s 737 mmHg 38%
    17:00 +26°C° 0 mm 2 m/s 737 mmHg 44%
    18:00 +24°C° 0 mm 2 m/s 736 mmHg 50%
    19:00 +21°C° 0 mm 2 m/s 737 mmHg 54%
    20:00 +19°C° 0 mm 2 m/s 737 mmHg 58%
    21:00 +17°C° 0 mm 2 m/s 737 mmHg 62%
    22:00 +16°C° 0 mm 2 m/s 737 mmHg 64%
    23:00 +16°C° 0 mm 2 m/s 737 mmHg 65%

    23 Août, Vendredi

    Heure Température Précipitation Vent Pression Humidité
    00:00 +15°C° 0 mm 2 m/s 736 mmHg 67%
    01:00 +15°C° 0 mm 1 m/s 736 mmHg 70%
    02:00 +14°C° 0 mm 1 m/s 736 mmHg 72%
    03:00 +14°C° 0 mm 1 m/s 736 mmHg 75%
    04:00 +14°C° 0 mm 1 m/s 736 mmHg 76%
    05:00 +14°C° 0 mm 1 m/s 736 mmHg 78%
    06:00 +14°C° 0 mm 1 m/s 736 mmHg 79%
    07:00 +17°C° 0 mm 2 m/s 736 mmHg 69%
    08:00 +20°C° 0 mm 2 m/s 736 mmHg 60%
    09:00 +24°C° 0 mm 2 m/s 736 mmHg 50%
    10:00 +26°C° 0 mm 2 m/s 736 mmHg 45%
    11:00 +28°C° 0 mm 2 m/s 736 mmHg 40%
    12:00 +29°C° 0 mm 2 m/s 735 mmHg 35%
    13:00 +30°C° 0 mm 2 m/s 735 mmHg 33%
    14:00 +30°C° 0 mm 2 m/s 735 mmHg 32%
    15:00 +31°C° 0 mm 2 m/s 734 mmHg 30%
    16:00 +29°C° 0 mm 2 m/s 734 mmHg 37%
    17:00 +27°C° 0 mm 1 m/s 734 mmHg 43%
    18:00 +25°C° 0 mm 1 m/s 733 mmHg 50%
    19:00 +23°C° 0 mm 1 m/s 733 mmHg 54%
    20:00 +21°C° 0 mm 1 m/s 733 mmHg 58%
    21:00 +19°C° 0 mm 1 m/s 733 mmHg 62%
    22:00 +19°C° 0 mm 1 m/s 733 mmHg 64%
    23:00 +18°C° 0 mm 1 m/s 733 mmHg 67%

    24 Août, Samedi

    Heure Température Précipitation Vent Pression Humidité
    00:00 +16°C° 0 mm 1 m/s 733 mmHg 69%
    01:00 +16°C° 0 mm 1 m/s 732 mmHg 71%
    02:00 +15°C° 0 mm 1 m/s 732 mmHg 72%
    03:00 +15°C° 0 mm 1 m/s 732 mmHg 74%
    04:00 +15°C° 0 mm 1 m/s 732 mmHg 73%
    05:00 +15°C° 0 mm 1 m/s 732 mmHg 72%
    06:00 +16°C° 0 mm 1 m/s 732 mmHg 71%
    07:00 +20°C° 0 mm 1 m/s 733 mmHg 60%
    08:00 +24°C° 0 mm 1 m/s 733 mmHg 50%
    09:00 +27°C° 0 mm 1 m/s 733 mmHg 40%
    10:00 +29°C° 0 mm 1 m/s 733 mmHg 35%
    11:00 +31°C° 0 mm 1 m/s 733 mmHg 30%
    12:00 +32°C° 0 mm 1 m/s 733 mmHg 25%
    13:00 +32°C° 0 mm 1 m/s 732 mmHg 24%
    14:00 +32°C° 0 mm 1 m/s 732 mmHg 22%
    15:00 +32°C° 0 mm 2 m/s 732 mmHg 21%
    16:00 +30°C° 0 mm 1 m/s 731 mmHg 28%
    17:00 +28°C° 0 mm 1 m/s 731 mmHg 35%
    18:00 +26°C° 0 mm 1 m/s 731 mmHg 42%
    19:00 +24°C° 0 mm 1 m/s 731 mmHg 44%
    20:00 +23°C° 0 mm 1 m/s 731 mmHg 46%
    21:00 +21°C° 0 mm 1 m/s 731 mmHg 48%
    22:00 +21°C° 0 mm 1 m/s 731 mmHg 48%
    23:00 +20°C° 0 mm 1 m/s 731 mmHg 48%
    Voir plus